Tracking 27380 objects as of 5-Jun-2023
HD Live streaming from Space Station
objects crossing your sky now

DELTA 1 DEB

Track DELTA 1 DEB now!
10-day predictions


NORAD ID: 7015
Int'l Code: 1973-086F
Perigee: 1,512.4 km
Apogee: 2,173.2 km
Inclination: 101.8 °
Period: 123.5 minutes
Semi major axis: 8213 km
RCS: 0.3794 m2 (medium)
Launch date: November 6, 1973
Source: United States (US)
Launch site: AIR FORCE WESTERN TEST RANGE (AFWTR)

Note: This is SATELLITE DEBRIS
Your satellite tracking list
Your tracking list is empty




NASA's NSSDC Master Catalog

Two Line Element Set (TLE):
1 07015U 73086F   23156.47251559 -.00000034  00000-0  12228-4 0  9999
2 07015 101.7916 106.7186 0402228  21.0007  93.5791 11.66231522110675
Source of the keplerian elements: AFSPC